Wind_Speed
27 27 27 26 26 25 24 23 23 23 23 21 20 20 21 22 21 19 16 14 14 15 15 16 16 14 13 14 16 16 15 14 14 16 17 17 17 18 18 17 18 17 15 14 14 15 16 16 17 19 21 21 21 20 18 16 14 16 22 25 23 21 21 18 13 12 12 12 12 11 9 9 9 8 7 4 2 2 2 2 2 2 1 1 2
20 24 27 26 25 23 22 23 24 23 22 20 20 21 21 20 19 17 15 15 15 16 15 15 16 15 14 14 15 15 15 14 14 16 17 17 18 19 19 19 19 17 16 15 16 16 17 17 17 17 18 17 16 15 14 13 12 13 16 22 24 23 19 17 17 15 13 13 15 13 11 11 10 9 10 8 4 3 3 3 3 3 3 2 0
13 15 18 22 23 23 24 25 24 22 21 20 20 20 19 18 16 15 16 17 16 15 14 15 16 15 15 15 15 14 14 14 14 15 17 18 19 20 20 20 19 19 19 18 16 16 18 18 16 15 15 14 12 12 12 12 12 12 14 18 22 21 16 14 15 16 16 16 16 15 14 13 11 10 11 10 7 6 5 3 3 5 6 5 3
16 12 11 14 17 19 23 25 24 22 21 20 20 19 18 17 15 14 17 18 17 15 14 14 15 15 15 15 14 13 14 14 14 16 17 17 19 21 21 21 21 21 22 20 17 17 18 18 16 14 14 14 12 11 12 13 14 14 15 16 16 15 13 12 13 15 16 17 16 16 15 13 11 9 10 11 11 9 6 3 4 7 7 6 4
20 16 15 15 15 14 15 18 20 21 21 20 20 19 17 16 14 16 18 19 18 16 15 15 15 15 16 16 14 14 14 14 15 16 16 16 18 22 23 22 22 22 21 20 19 19 19 18 17 15 15 15 13 12 14 15 15 15 15 14 13 12 11 12 12 13 15 16 16 15 15 14 11 9 9 11 13 12 8 4 6 7 6 5 3
21 20 20 20 19 18 17 16 16 17 18 19 20 20 19 17 16 18 20 20 18 17 16 16 16 16 16 15 14 15 15 14 15 16 16 17 18 21 21 21 20 20 20 20 20 20 19 19 18 16 16 17 16 14 14 15 16 15 15 14 13 12 11 11 12 13 14 15 16 15 14 14 13 12 11 12 14 13 11 8 8 7 5 4 2
23 22 22 21 21 22 22 20 19 18 17 16 16 17 18 18 17 17 18 20 19 17 16 16 16 17 17 15 15 15 14 14 16 16 16 17 19 20 20 20 20 21 19 19 19 18 18 18 18 18 18 17 17 16 15 15 15 14 15 15 15 14 12 11 11 12 12 13 14 14 14 14 15 14 12 12 13 14 13 13 10 6 4 2 0
21 23 24 24 23 24 25 24 24 22 18 14 13 15 15 16 16 15 16 19 18 16 16 15 14 17 19 17 16 17 15 15 17 17 15 16 20 22 20 20 21 20 19 18 18 17 16 17 18 18 18 17 16 16 16 16 15 15 15 15 15 14 12 10 10 11 11 10 11 12 12 13 14 14 12 12 12 13 13 13 10 6 3 1 1
20 20 22 23 24 25 25 25 24 21 18 16 14 14 12 12 14 13 13 16 15 14 16 15 14 17 20 19 19 19 18 18 19 19 17 18 22 24 22 21 21 20 20 20 18 17 17 17 17 18 18 17 16 15 14 14 15 15 15 15 15 14 13 11 10 10 10 9 9 8 8 8 9 10 11 12 13 12 12 11 8 5 2 0 2
19 19 19 19 19 18 17 18 18 17 18 18 17 16 13 11 11 11 11 13 14 14 16 16 15 16 19 20 21 22 21 20 20 21 21 20 22 24 24 23 22 20 21 22 21 20 19 18 18 18 18 18 17 16 15 14 13 13 13 14 14 15 14 14 13 11 10 10 9 8 7 7 6 7 9 12 11 11 10 9 6 3 2 4 4
19 19 18 17 16 15 14 13 12 13 16 18 17 16 15 12 9 6 7 11 14 16 16 16 15 16 17 19 22 24 24 22 21 22 23 22 22 23 24 25 22 20 22 24 24 23 21 21 21 20 19 19 18 17 16 15 14 12 12 12 13 14 14 15 15 14 14 13 12 11 10 9 8 8 8 10 11 9 8 6 3 2 4 5 6
25 24 22 20 17 14 12 10 10 10 11 13 13 13 13 13 10 6 3 5 11 16 17 16 15 15 16 18 19 22 24 24 22 23 23 24 24 23 24 25 23 22 23 25 25 25 24 22 23 23 22 21 20 19 18 17 16 15 14 14 14 14 14 15 15 16 16 15 14 13 12 10 10 11 11 11 11 8 6 3 2 3 4 4 5
31 29 28 27 25 21 18 14 12 10 8 7 7 6 6 7 8 6 2 1 4 9 11 12 11 12 14 16 16 18 20 22 24 25 25 25 25 24 25 26 26 25 25 25 25 25 25 24 24 24 23 22 21 20 19 19 17 17 17 18 18 18 18 18 17 16 17 17 16 16 15 13 13 14 13 12 10 7 4 2 2 2 3 3 4
31 30 29 29 28 27 25 23 20 17 15 12 10 8 8 5 3 3 3 5 5 5 5 6 6 7 8 10 12 13 14 16 20 24 27 28 28 27 27 28 29 29 29 28 28 27 27 27 27 25 24 23 21 20 20 19 17 17 18 19 19 20 20 20 19 19 18 18 18 18 17 15 15 15 13 11 7 5 3 2 1 1 1 2 4
29 28 27 26 25 25 24 23 22 20 18 17 16 15 15 13 10 6 1 3 6 8 8 7 8 9 9 10 12 13 14 14 14 17 21 26 29 31 31 31 31 32 32 32 31 30 29 29 29 28 26 25 23 22 21 19 17 17 18 19 19 19 19 18 18 17 18 17 16 16 16 14 13 13 11 8 5 3 3 3 1 0 1 2 3
27 26 25 24 22 21 21 21 20 19 17 16 17 17 16 14 13 10 8 6 3 3 4 5 8 11 13 13 14 15 16 16 16 16 16 19 23 28 32 33 33 33 34 34 34 33 32 31 31 30 28 27 26 25 23 21 19 18 19 20 20 19 18 17 16 14 14 14 13 13 14 13 11 9 7 4 3 3 3 1 2 2 2 2 2
26 25 24 23 21 19 18 18 18 18 17 16 17 16 15 14 13 12 11 10 9 9 8 6 6 7 10 11 13 14 14 14 16 17 17 18 19 21 25 30 33 33 34 34 34 34 34 33 33 31 30 30 29 27 24 22 20 20 21 21 20 19 17 16 14 12 12 12 12 12 12 11 9 6 4 2 1 1 2 3 4 2 1 1 2
25 24 24 22 21 20 18 17 18 18 17 17 17 16 15 14 14 13 13 12 12 11 11 9 8 7 7 9 12 14 15 15 16 17 18 19 19 20 21 25 30 31 31 32 32 32 33 33 32 31 30 31 28 24 22 22 22 22 22 22 21 19 17 15 13 12 14 14 14 13 11 9 7 6 5 4 4 4 3 3 3 2 0 1 2
22 22 22 22 21 21 20 19 19 19 19 18 17 17 16 15 14 14 13 13 13 12 12 11 10 9 9 9 10 12 15 16 17 18 20 20 21 21 21 24 27 27 28 29 30 31 31 30 29 29 29 28 26 24 23 24 24 24 23 23 24 22 19 16 15 17 18 17 14 12 10 9 8 8 7 5 4 3 1 0 1 1 1 1 2
18 18 19 20 20 20 20 19 18 18 18 18 17 17 17 16 16 15 15 15 15 14 13 13 13 12 12 12 12 13 15 16 17 18 19 21 23 24 24 25 26 27 28 29 30 31 29 25 25 28 28 25 25 24 24 25 25 25 25 26 25 21 17 17 17 16 16 14 12 11 10 10 9 8 6 4 2 2 2 2 2 2 1 1 3
16 16 17 18 17 17 18 17 17 17 17 16 16 16 16 16 16 16 16 16 16 16 16 16 16 15 14 13 13 13 14 15 16 16 17 20 23 26 28 28 28 28 30 31 31 32 30 26 26 28 28 26 25 25 25 25 26 27 29 28 22 15 15 18 17 14 13 12 11 11 11 10 8 6 5 5 6 6 6 5 3 1 2 3 4
15 16 17 17 17 17 17 16 16 16 16 16 16 15 15 15 15 15 16 16 16 16 17 17 18 17 16 15 14 13 13 13 15 16 17 18 21 25 30 31 30 30 31 32 33 34 35 34 32 31 31 31 29 28 26 27 28 28 27 23 17 14 18 21 18 15 15 14 13 13 11 9 9 9 10 10 9 8 6 4 1 1 3 3 2
16 16 17 18 18 17 17 17 17 16 16 16 16 15 15 15 15 15 16 17 17 18 18 18 19 20 20 19 18 18 17 17 16 17 17 18 19 22 27 31 32 33 32 32 34 35 36 38 36 34 33 31 29 28 27 27 30 29 25 21 17 18 21 23 19 17 17 16 14 14 12 12 12 12 11 10 9 6 4 2 1 1 2 2 2
17 18 18 18 18 17 16 16 16 16 16 17 17 17 17 17 17 17 17 18 19 19 19 20 21 22 22 22 22 22 22 21 20 19 19 19 19 20 22 26 31 35 35 34 35 35 35 36 35 33 31 29 27 26 27 28 30 29 25 23 22 23 24 24 22 20 19 17 15 14 13 12 12 11 10 9 7 5 3 2 1 0 1 2 3
18 18 18 18 17 16 15 15 15 15 16 17 18 18 19 19 19 18 18 19 19 20 20 21 21 21 21 22 23 23 23 24 23 22 20 18 19 20 21 23 27 32 35 36 35 35 35 34 33 31 29 27 25 25 25 26 26 26 25 24 25 26 26 26 24 22 19 17 16 15 15 13 11 11 10 8 6 5 3 2 1 1 2 4 4
18 18 18 17 15 14 14 15 16 16 17 18 18 19 19 19 20 20 19 19 20 20 20 20 21 22 22 22 23 24 24 24 24 23 21 19 19 21 22 23 24 27 30 32 32 32 32 31 30 29 28 27 27 26 25 23 22 23 25 27 27 26 27 26 24 21 19 17 17 17 15 13 12 12 10 8 6 5 3 1 2 4 5 6 7
19 19 18 15 14 15 16 17 18 19 20 20 20 20 19 19 19 20 19 20 21 21 20 21 22 22 23 24 25 25 24 24 24 23 21 19 20 23 24 24 23 24 25 26 27 28 27 26 26 27 28 30 31 30 28 26 25 25 26 28 28 28 27 25 22 20 18 19 19 18 16 14 13 12 9 7 5 3 2 3 5 7 7 8 8
21 21 19 17 15 16 18 19 20 21 21 21 21 21 20 19 19 18 17 18 19 20 20 21 21 21 23 25 26 26 26 25 23 22 20 20 21 23 24 25 24 22 21 21 24 26 25 24 24 25 24 25 28 30 30 28 27 27 28 28 28 27 25 22 20 19 19 20 20 19 16 14 12 9 7 5 3 3 4 6 7 7 7 7 8
20 20 20 19 18 18 18 19 20 21 22 22 21 21 20 20 20 18 17 16 17 19 20 20 20 21 23 25 25 26 27 26 24 22 20 19 19 21 22 24 24 21 19 19 21 23 22 23 26 26 22 19 19 22 26 27 26 27 28 28 26 25 24 22 21 21 20 19 18 16 14 12 9 7 5 3 3 3 4 6 6 6 6 7 8
17 16 17 19 19 17 17 17 18 20 21 21 21 21 21 20 19 19 19 18 18 17 18 20 22 23 24 24 22 23 25 25 24 23 21 19 18 18 20 23 24 20 16 17 20 21 21 24 26 25 24 21 16 14 17 21 22 23 25 25 25 24 22 20 20 19 18 16 15 13 11 10 8 7 4 3 2 2 3 4 4 4 5 7 8
15 14 13 15 17 16 16 17 18 18 18 19 20 21 22 22 20 19 19 19 19 19 20 23 23 21 19 19 19 18 20 22 23 23 21 20 19 19 20 23 23 19 15 16 19 19 21 24 25 24 23 21 19 17 18 20 20 21 22 22 22 21 20 19 18 17 16 14 12 11 9 8 8 6 4 2 2 1 1 1 2 3 4 5 7
13 12 11 13 14 14 15 16 16 17 17 18 19 20 21 22 22 21 20 19 20 22 24 24 20 16 15 16 18 18 19 20 21 22 20 19 20 20 21 22 21 17 15 17 19 18 20 22 24 25 24 23 22 23 23 23 23 23 22 22 21 18 17 17 16 14 13 11 10 9 8 8 8 6 4 3 3 2 2 2 1 1 3 5 7
10 10 10 11 12 13 15 16 15 15 17 18 19 20 20 19 20 22 23 23 24 24 23 21 19 18 18 17 18 19 19 19 20 20 19 19 19 20 20 20 19 17 16 18 19 20 22 24 24 25 27 27 27 26 25 24 24 23 21 20 19 17 16 15 13 11 9 9 9 10 10 9 8 6 5 4 3 4 5 4 2 2 4 6 7
8 8 9 10 11 12 14 15 14 14 14 15 17 18 18 17 17 19 21 24 25 26 25 23 22 22 22 20 19 19 19 18 18 18 18 18 18 19 19 18 16 16 17 19 21 23 26 27 26 27 29 31 31 29 27 26 25 23 20 18 17 17 15 13 11 10 10 10 11 11 10 8 7 6 6 6 6 6 6 4 2 3 5 5 6
6 7 9 9 10 11 13 13 13 13 13 14 16 17 17 17 17 17 17 20 23 26 28 28 27 25 23 22 19 18 17 17 17 17 17 17 17 17 16 16 16 17 19 21 22 24 27 28 27 26 27 29 31 30 29 28 26 23 20 18 17 16 14 13 12 12 12 12 12 11 10 8 7 7 7 8 8 7 5 3 3 4 4 5 7
6 7 8 8 9 11 12 12 12 11 12 13 15 16 16 16 16 17 18 20 22 24 26 29 28 26 23 20 17 15 16 17 18 18 17 14 12 12 15 16 17 18 20 21 21 22 24 26 26 23 22 24 27 29 29 28 26 23 22 20 18 17 16 16 15 14 13 13 13 12 11 9 9 8 8 8 7 6 4 4 4 4 4 6 8
7 8 7 7 9 11 11 11 10 10 11 13 15 15 16 16 17 17 19 21 22 23 25 26 26 24 23 20 15 13 14 15 15 16 14 9 5 9 14 17 17 18 19 19 19 20 21 22 23 23 21 22 25 27 27 26 25 23 22 21 19 18 18 17 15 14 14 14 13 12 10 10 9 8 8 8 7 6 5 5 5 4 5 7 8
7 7 6 7 9 10 10 10 10 10 11 13 14 14 15 16 17 17 18 20 21 22 23 22 20 20 21 19 14 11 12 12 10 10 9 4 2 7 11 13 15 17 18 17 18 20 21 22 23 24 24 24 24 24 24 24 23 22 21 19 18 18 17 16 15 15 15 15 13 11 10 10 8 7 7 8 7 6 6 6 5 5 6 7 8
7 6 5 6 7 8 8 10 11 11 13 14 14 14 14 15 16 17 19 19 20 20 19 18 16 17 18 16 11 9 10 8 6 5 6 4 0 2 4 6 9 12 14 14 16 18 20 21 22 22 24 24 22 22 22 21 20 19 19 19 19 19 18 17 17 16 16 14 13 11 9 8 8 8 7 7 7 7 8 7 5 6 7 7 7
6 7 5 4 5 6 9 11 12 12 12 12 12 13 14 15 16 16 16 16 16 15 14 14 14 15 16 13 9 8 8 6 4 4 5 5 4 5 6 7 7 9 11 13 15 17 19 19 19 20 22 22 22 22 22 20 19 19 21 22 22 21 19 19 18 17 15 14 11 10 9 9 10 10 8 7 8 8 7 5 5 6 6 5 5
6 6 4 3 4 7 10 12 12 11 10 10 10 12 13 13 13 13 12 12 12 11 11 11 12 13 14 12 8 5 4 5 3 3 3 4 6 8 8 8 7 8 10 13 14 15 16 18 21 23 24 24 23 23 22 21 21 23 23 23 22 22 21 19 17 16 14 12 10 10 10 11 11 11 10 8 7 6 5 5 5 6 5 3 6
6 5 2 2 4 7 10 11 12 11 11 9 8 9 10 9 8 9 10 11 11 11 10 11 13 13 12 11 8 4 4 5 4 2 3 6 7 8 8 10 10 9 10 12 14 16 18 21 24 25 25 24 22 22 22 24 25 25 23 22 23 23 21 19 16 14 13 11 10 11 11 11 11 11 10 8 6 5 6 6 6 5 3 4 7
5 3 1 1 3 5 8 11 11 12 13 11 8 7 8 8 8 9 9 9 9 9 10 12 14 12 9 8 6 5 4 4 5 2 3 6 8 8 8 8 9 11 11 12 15 17 20 22 23 23 23 22 23 23 25 25 24 22 22 22 23 22 20 18 16 14 12 11 11 10 11 11 12 11 9 7 6 7 7 6 5 3 4 7 9
4 2 2 3 2 3 6 9 9 10 13 12 8 6 7 8 7 7 7 7 8 9 10 12 12 10 9 8 7 5 4 4 4 4 3 4 5 6 6 6 8 10 11 12 14 17 19 22 23 23 23 22 22 22 21 20 20 20 21 23 22 21 19 17 15 12 11 10 11 11 11 12 11 9 8 8 8 7 6 3 1 3 6 8 8
4 2 3 4 2 1 2 4 6 8 11 11 9 7 7 6 6 6 7 7 8 8 9 10 10 11 12 11 9 7 6 5 5 6 6 6 6 6 6 7 8 10 12 15 17 18 19 21 23 23 23 21 20 19 19 20 20 21 21 20 19 18 16 14 13 11 10 9 10 11 13 12 11 9 8 8 8 7 4 3 6 6 6 5 5
3 2 2 2 1 2 2 1 3 6 9 10 9 7 8 8 6 6 6 7 7 7 8 9 12 13 14 12 11 10 10 9 10 11 12 12 12 12 12 13 14 16 18 20 21 21 22 23 23 24 24 23 22 21 21 20 19 17 15 14 14 14 14 13 11 10 9 8 9 11 13 13 12 10 9 8 6 5 4 4 5 6 6 4 4
1 1 1 1 2 2 3 3 2 4 7 8 8 7 9 9 7 5 6 7 7 7 7 10 13 15 16 15 14 14 14 15 16 17 18 19 20 21 22 22 23 24 25 24 24 24 25 25 24 24 24 23 21 20 18 15 14 12 11 11 12 12 13 12 11 9 8 8 9 12 14 13 12 9 8 6 5 4 6 6 6 7 7 5 4
1 1 1 1 1 3 4 5 5 4 6 7 6 7 9 9 7 6 6 7 7 7 7 10 13 16 17 18 18 18 19 20 21 22 23 23 24 24 25 26 27 27 26 25 24 24 23 22 21 21 20 18 17 16 15 13 12 11 10 10 11 12 12 11 10 9 9 10 12 14 14 12 10 8 7 6 5 6 8 9 8 8 8 6 6
2 1 2 2 2 4 5 5 5 6 5 5 7 9 11 10 9 8 8 8 8 8 9 11 14 16 18 19 20 20 21 22 22 23 24 24 24 23 23 22 23 22 22 22 21 20 19 19 18 18 17 16 15 14 14 13 12 10 9 10 11 12 12 11 10 10 11 12 13 13 12 11 9 7 6 5 6 8 9 7 5 6 7 6 8
4 2 2 3 4 5 5 5 6 6 6 6 9 12 13 12 10 9 9 8 9 10 10 11 14 15 16 17 18 19 20 20 21 21 21 21 21 20 19 19 19 19 19 20 20 20 20 19 18 17 16 15 15 14 13 13 12 11 10 11 12 13 13 12 12 12 12 12 12 12 11 9 8 7 6 6 7 8 8 5 2 2 4 5 7
7 5 4 5 5 5 5 5 5 5 5 6 9 12 13 12 11 10 9 9 10 11 12 12 13 14 15 16 17 18 18 19 18 18 18 17 16 16 16 16 17 17 18 20 20 20 19 18 17 16 15 14 13 13 12 12 12 12 11 12 13 13 13 13 13 14 13 13 12 10 9 8 8 7 7 7 7 8 7 4 1 1 2 4 6
Wind_Direction
178 176 173 170 169 170 173 174 173 175 178 179 180 180 178 176 174 174 177 180 182 180 177 177 177 173 168 168 168 167 169 170 168 169 166 163 162 160 159 157 151 149 150 152 154 153 150 139 127 128 130 128 131 139 145 148 157 176 192 197 190 183 180 170 152 156 179 191 187 181 187 193 193 198 202 196 170 167 178 191 221 235 247 339 26
168 171 173 172 171 170 169 169 170 173 175 176 177 176 175 174 174 177 179 179 180 179 178 181 183 179 173 173 174 174 178 177 173 172 169 166 164 160 157 156 154 154 156 154 153 152 151 147 140 137 138 133 130 134 140 142 139 143 170 189 185 178 182 178 161 157 169 180 183 186 194 203 211 215 217 222 226 226 241 257 252 236 232 234 194
147 151 161 165 168 170 169 169 169 171 174 176 177 176 174 175 177 179 180 179 179 181 181 181 183 182 178 176 175 177 182 184 182 180 176 172 170 165 161 160 160 162 162 157 155 154 152 148 147 148 149 141 134 136 141 147 148 140 152 173 177 176 187 191 175 168 171 175 184 193 197 205 220 229 229 231 236 243 251 257 233 196 176 168 152
154 138 130 139 150 161 167 170 172 174 177 178 178 176 175 177 178 179 181 179 178 180 180 179 181 183 184 182 180 180 184 187 186 183 182 182 179 174 168 166 165 165 164 162 162 161 158 152 150 154 155 147 141 146 151 153 156 153 155 165 173 178 191 199 190 183 181 182 189 196 199 205 218 232 238 236 234 238 248 241 186 167 159 151 134
160 156 151 151 153 152 155 166 173 178 181 180 180 179 178 181 180 178 179 178 179 182 182 182 181 181 184 186 187 187 188 189 188 187 187 187 183 178 174 171 171 170 170 170 169 169 167 162 158 161 162 155 148 150 156 158 159 160 162 165 168 172 181 193 198 195 190 190 194 199 205 211 219 228 235 237 232 227 229 218 170 156 150 140 126
160 161 162 166 169 166 166 171 178 186 188 183 182 182 182 183 181 177 179 180 182 186 188 188 188 186 186 188 190 192 192 193 194 193 192 191 187 183 181 181 180 180 179 180 178 178 177 174 171 173 172 168 164 163 164 166 169 170 168 165 164 164 168 183 198 200 198 199 199 201 207 215 225 229 229 235 235 226 217 202 179 168 159 145 129
161 162 163 166 169 172 176 179 184 191 192 185 185 188 186 185 184 181 183 183 183 188 194 197 198 195 192 188 190 194 195 196 197 194 196 199 196 192 191 190 187 184 184 186 188 189 189 188 186 185 184 181 177 174 173 170 172 175 174 171 169 167 164 168 183 195 204 209 209 210 218 223 229 235 237 238 239 231 218 205 193 189 186 176 223
154 157 160 161 165 170 175 179 181 183 179 174 186 197 192 187 185 182 181 184 186 190 195 198 200 198 194 190 190 193 194 196 199 198 197 199 197 194 193 191 189 189 192 196 199 199 199 199 198 195 194 193 188 185 184 180 178 177 176 177 178 177 174 170 174 186 198 205 206 215 228 232 234 241 244 237 228 217 209 206 201 193 188 203 307
148 151 155 159 163 166 169 172 175 175 168 163 176 191 190 186 188 187 186 189 192 192 193 196 197 196 197 195 194 197 197 199 203 201 196 193 193 194 194 195 196 199 201 204 206 205 201 199 201 202 203 204 201 198 196 195 195 192 189 190 192 191 191 190 190 191 195 198 197 203 217 226 233 237 226 216 213 204 198 202 199 186 184 303 341
140 140 142 150 158 160 161 164 168 171 169 167 173 181 182 184 191 199 203 202 199 194 192 196 200 200 201 200 199 201 202 202 204 203 199 196 195 198 200 201 203 208 209 207 206 205 203 203 204 206 209 211 212 211 209 209 211 211 210 211 211 209 208 207 207 204 203 207 211 213 213 210 221 228 207 198 199 194 190 197 199 207 288 320 334
118 117 120 129 141 148 150 150 152 157 162 167 172 173 174 175 173 181 203 207 205 201 197 199 205 207 208 208 206 207 208 207 206 205 204 204 202 204 206 206 209 214 213 210 208 206 206 209 210 210 212 214 216 218 219 220 220 221 223 223 224 224 223 219 215 211 212 215 218 221 218 207 205 209 197 185 184 185 189 200 220 288 328 336 332
92 91 92 96 105 116 127 132 133 133 142 155 160 161 168 173 161 139 142 196 205 208 207 207 210 213 214 216 215 214 214 214 212 209 209 210 210 209 210 211 214 215 212 211 211 210 210 210 210 210 211 214 217 220 224 227 227 229 232 232 232 234 233 232 226 221 220 222 221 221 219 209 196 194 192 186 183 184 192 209 270 317 338 339 327
83 80 78 78 80 84 89 90 93 95 98 114 133 145 167 181 173 152 110 357 203 199 202 206 211 214 218 224 229 229 227 224 221 218 215 214 215 216 216 216 218 219 218 219 219 217 216 214 212 211 212 214 218 222 226 228 230 234 240 241 241 241 241 241 238 233 230 228 225 223 223 218 206 196 193 192 190 188 196 222 270 303 332 340 344
76 73 71 71 72 75 78 78 77 78 79 81 83 80 74 76 115 165 224 272 262 236 220 217 221 225 226 232 238 242 243 238 233 228 223 220 220 222 222 222 223 223 224 226 227 226 224 222 219 218 218 218 220 223 226 230 234 241 246 246 245 245 245 244 242 241 239 236 233 230 226 220 210 199 192 193 198 206 220 246 261 287 5 16 21
69 68 66 66 66 68 70 69 67 68 70 73 72 69 68 67 67 70 68 266 262 260 256 250 252 254 256 259 257 253 254 256 253 244 234 229 227 226 226 226 226 226 226 227 229 229 229 227 226 226 224 223 224 224 226 233 242 247 247 245 243 243 244 245 244 242 238 233 229 224 215 205 199 195 190 193 211 244 269 282 279 117 69 50 50
60 61 60 57 58 59 60 58 54 51 52 55 56 53 51 51 49 43 36 33 13 317 282 266 262 256 254 260 265 264 264 266 268 265 257 247 239 235 233 230 229 228 229 229 230 230 229 229 230 230 229 229 229 227 228 235 244 245 241 239 239 239 240 241 238 233 229 224 218 211 200 192 189 190 190 201 242 271 277 246 151 129 87 62 53
51 51 50 48 47 46 47 48 42 36 35 36 36 35 33 31 28 22 17 15 15 9 360 346 320 285 264 259 263 267 270 271 271 272 270 264 256 248 243 237 234 233 231 230 230 230 230 231 232 232 232 231 230 230 233 238 241 240 235 232 233 232 232 232 228 218 212 210 204 193 183 177 177 178 179 192 213 196 177 156 152 155 78 65 49
44 43 42 41 41 40 37 36 32 26 24 24 22 19 16 13 10 9 7 3 1 360 354 348 345 337 312 285 274 275 278 279 278 275 274 271 265 259 252 244 238 236 235 233 231 229 229 229 230 230 230 230 232 237 242 244 242 236 230 227 226 222 214 210 204 188 179 178 174 167 161 157 156 153 150 146 144 148 153 156 172 201 273 60 28
43 40 39 38 40 40 36 32 28 24 22 21 20 16 12 7 0 356 355 354 352 350 346 339 333 334 336 326 311 301 296 293 289 283 278 274 269 263 256 247 240 236 236 235 233 232 231 227 225 229 232 235 241 246 245 245 242 236 232 226 219 212 205 197 188 175 168 166 162 155 149 147 145 144 143 144 145 149 151 144 200 267 314 43 12
46 44 44 43 42 41 39 36 32 28 24 20 18 15 12 7 1 356 352 348 344 341 339 338 332 329 332 332 329 325 319 311 303 297 291 284 276 269 260 251 245 241 237 235 232 231 231 226 224 230 236 239 244 244 243 244 243 239 236 226 212 202 199 192 182 174 170 165 158 152 147 147 149 150 153 154 144 123 97 78 69 47 16 355 354
53 51 49 47 43 38 35 32 29 26 23 19 16 13 9 5 2 359 355 351 347 343 338 336 333 331 331 331 331 332 331 325 315 307 303 297 288 279 268 260 255 250 244 239 235 233 232 230 227 230 236 240 242 242 241 242 241 239 235 224 209 203 203 191 177 173 172 165 156 152 149 150 153 148 140 128 117 114 110 102 96 72 329 320 331
51 45 40 35 32 27 23 19 17 16 13 12 12 11 9 7 4 2 359 357 359 357 350 344 339 335 332 330 329 329 330 330 326 316 308 300 293 286 277 270 265 258 250 244 242 241 242 242 240 240 243 246 246 243 240 236 234 232 227 217 208 209 202 187 173 169 168 161 155 151 147 145 140 131 126 123 120 120 119 113 110 332 332 335 330
36 32 28 25 21 18 15 12 11 10 8 8 7 5 5 5 6 6 5 4 6 5 1 354 348 342 337 331 328 326 324 324 324 323 318 307 297 290 284 278 272 263 254 250 249 250 249 249 249 248 247 246 245 242 238 232 227 223 216 209 208 203 189 176 169 167 163 157 152 145 140 142 137 130 128 127 125 127 127 117 93 2 352 344 332
24 22 21 18 15 12 11 10 10 10 8 6 5 4 3 1 1 2 3 4 5 4 0 355 350 347 342 336 331 326 323 321 319 319 320 316 306 296 289 285 278 267 259 256 255 254 252 250 249 246 243 242 240 237 233 227 222 220 216 207 196 185 176 169 168 168 164 159 152 140 136 141 140 134 134 132 130 134 133 128 135 137 326 324 329
18 18 16 13 11 9 8 8 9 9 7 5 5 5 3 1 1 0 359 359 359 358 356 354 351 348 345 342 337 331 326 322 319 318 318 316 311 304 296 293 288 274 263 258 257 254 252 250 245 240 236 233 229 223 221 220 218 215 209 196 183 176 173 171 171 173 167 158 149 140 138 141 139 136 137 136 135 136 128 122 131 314 319 320 321
13 13 11 10 10 9 8 8 7 3 1 360 357 355 354 355 355 354 354 355 355 352 350 349 348 347 343 340 338 334 329 325 320 319 319 318 317 314 308 304 300 288 271 261 256 254 253 249 242 233 225 219 212 206 200 194 191 192 190 186 183 182 178 174 175 174 166 154 148 144 143 142 138 135 136 138 137 134 124 92 351 336 331 326 323
8 5 3 3 5 6 6 4 1 358 356 356 354 352 351 349 346 346 348 348 347 345 344 343 343 343 340 337 334 331 329 327 322 317 316 318 320 320 317 313 309 300 285 269 255 250 251 246 231 217 211 206 200 194 186 176 174 178 181 183 185 184 182 182 182 176 165 156 151 146 142 141 138 136 139 143 137 115 59 359 347 346 345 341 339
0 360 359 356 355 357 357 356 354 354 353 353 352 351 349 347 344 343 343 341 339 337 336 335 336 336 333 330 328 326 324 326 325 317 310 310 312 314 316 318 315 306 295 277 254 243 243 235 214 200 196 194 190 187 182 177 175 176 177 179 181 181 181 182 178 169 162 156 150 145 142 142 141 141 141 135 109 63 16 354 349 350 352 353 353
357 360 1 357 351 347 349 350 351 349 347 345 344 343 340 338 336 334 334 334 333 330 328 327 328 328 324 320 319 317 317 322 325 316 302 296 300 303 309 316 314 307 295 273 249 235 226 213 200 192 188 187 189 189 185 179 175 173 174 177 177 175 175 174 167 158 156 154 149 145 145 144 142 140 135 114 82 38 360 350 351 353 354 357 356
349 350 355 357 353 348 347 347 345 343 341 339 338 336 334 333 330 327 326 328 328 326 323 321 320 319 315 311 308 307 310 317 323 316 299 288 290 299 305 308 307 303 290 263 241 225 208 195 190 190 189 188 191 189 179 174 171 169 168 168 168 167 166 163 158 152 150 150 148 146 147 145 140 139 137 119 78 24 356 356 6 6 2 1 358
341 337 341 348 347 343 340 338 336 338 339 339 336 333 331 332 331 327 325 324 324 322 319 316 316 315 313 311 308 305 305 310 315 312 301 288 283 287 297 301 298 292 274 246 225 209 196 187 185 188 188 187 185 178 172 170 168 165 160 158 159 159 155 151 149 148 147 145 143 144 147 145 144 147 147 131 110 74 36 41 35 17 7 3 356
338 333 334 339 337 334 333 333 333 336 338 339 338 335 332 329 328 328 327 325 321 318 317 318 321 323 322 320 318 315 311 309 308 307 300 288 279 278 286 292 289 276 253 230 213 200 191 185 183 184 182 176 173 173 173 170 166 164 160 154 150 151 149 147 148 148 146 145 147 149 149 146 147 148 140 127 129 135 138 138 120 36 9 2 354
336 331 330 332 333 334 335 334 333 335 338 338 337 335 332 328 324 324 325 324 322 320 322 328 333 334 330 326 321 317 314 312 309 303 297 288 279 276 280 281 274 257 236 220 208 200 196 192 188 185 182 176 173 172 172 168 165 164 160 153 148 147 147 146 146 144 144 151 155 153 148 146 144 139 134 133 142 154 156 153 131 48 18 11 3
339 334 330 327 330 335 337 333 329 330 333 335 336 335 332 330 330 327 325 325 325 326 329 335 336 334 332 328 321 316 314 314 312 305 297 289 281 276 274 269 254 238 229 222 213 205 201 198 193 189 186 181 178 175 170 167 166 164 160 154 151 149 147 148 150 151 152 156 157 153 148 146 143 140 149 160 163 158 153 139 87 43 33 27 7
341 335 329 323 327 336 338 333 329 327 328 331 337 338 336 336 336 331 324 321 319 319 323 328 331 332 332 329 322 318 319 320 317 310 301 293 285 274 262 248 234 224 219 219 217 211 204 199 195 193 190 184 178 175 169 165 164 163 161 159 157 154 154 157 159 160 159 159 159 154 149 149 150 153 162 167 162 150 132 101 76 63 50 27 0
323 324 325 322 330 340 342 337 333 331 328 326 326 328 329 329 327 321 317 316 314 311 314 321 327 330 334 333 327 323 324 322 318 314 308 301 289 267 245 234 229 220 212 211 213 209 204 199 196 193 190 184 178 171 165 161 161 163 165 165 163 162 163 164 163 162 162 161 159 157 155 156 159 162 162 157 147 131 112 99 92 75 42 15 357
321 323 322 325 338 347 351 350 346 339 331 324 319 318 318 317 315 313 311 311 312 312 314 320 326 330 335 338 337 332 329 325 323 323 322 315 278 244 240 238 231 218 208 206 206 203 200 198 194 188 183 180 175 169 163 162 163 164 163 163 165 167 168 167 165 164 163 162 159 158 158 157 156 159 157 144 127 115 112 105 91 68 38 12 357
332 330 320 324 342 353 358 358 352 342 331 324 319 317 314 310 309 310 310 312 315 317 318 321 325 329 333 338 340 338 333 328 329 337 343 340 236 233 243 241 227 213 204 202 203 201 196 191 186 179 174 172 171 168 164 162 161 159 158 160 167 171 170 166 164 163 163 161 158 157 159 155 149 150 146 129 114 116 121 110 87 59 30 6 352
334 330 316 324 345 355 353 346 339 332 324 321 320 317 313 310 311 314 317 319 322 324 324 326 331 334 336 337 336 333 334 337 351 19 32 41 57 234 223 204 196 195 193 193 194 193 185 178 173 170 166 167 171 172 168 162 158 158 160 163 168 170 168 165 163 161 159 158 157 159 164 160 149 145 139 122 113 120 121 107 73 32 11 357 345
328 326 321 336 355 354 346 341 338 334 327 323 319 315 314 317 323 327 329 330 331 334 339 344 345 344 343 340 335 330 337 355 31 58 59 65 91 120 137 148 161 175 179 177 176 173 168 164 164 165 164 164 166 167 162 158 158 161 163 165 166 165 164 162 160 158 157 157 159 163 167 164 157 151 143 128 119 115 106 84 47 26 20 9 349
325 327 328 357 4 353 350 350 351 350 347 338 329 324 325 332 339 344 349 354 358 3 8 6 360 353 349 349 349 337 334 353 24 65 76 88 117 127 116 102 112 143 160 162 160 159 156 153 153 154 152 150 149 148 147 149 156 161 164 167 167 163 160 159 160 160 159 160 164 168 169 168 163 157 146 133 119 103 83 66 57 52 46 20 351
329 329 336 22 2 350 352 359 6 14 19 16 2 349 351 2 14 22 28 30 30 30 28 17 5 359 358 2 2 340 310 322 338 25 110 128 141 138 111 89 89 107 131 144 147 148 149 147 145 143 143 143 143 144 147 153 159 164 169 173 170 164 161 161 162 164 164 163 166 168 164 158 154 151 146 135 114 89 80 79 78 72 42 355 352
330 320 258 349 347 351 2 9 17 27 32 33 30 19 21 35 47 46 41 36 33 33 29 17 6 5 14 20 10 348 327 326 333 353 120 143 146 138 121 107 103 107 117 130 137 142 144 143 139 138 140 143 145 148 153 158 162 168 174 174 169 164 163 164 165 167 170 167 164 162 155 149 150 153 149 133 111 96 91 93 97 80 356 348 358
329 310 224 247 300 359 15 12 16 29 35 37 43 49 51 55 53 43 35 33 34 37 33 25 22 32 47 49 42 35 32 15 6 27 85 139 148 135 123 122 122 121 125 134 142 145 144 141 137 136 140 144 147 151 157 163 169 175 175 171 166 164 166 168 169 172 175 172 166 161 157 154 156 156 142 120 109 104 99 87 23 340 338 346 6
332 307 242 251 275 26 32 358 355 15 30 38 47 63 81 85 69 48 42 39 39 43 43 42 51 63 66 63 60 61 60 58 58 70 90 118 132 130 126 128 131 131 132 137 143 145 144 143 141 141 142 145 146 148 151 157 164 168 168 167 166 167 169 171 172 172 173 173 169 165 163 160 157 151 136 121 113 108 92 19 356 4 11 12 26
347 330 267 246 212 131 115 50 347 5 25 39 49 70 97 105 88 61 52 47 43 50 60 67 72 76 77 77 76 76 79 85 89 93 100 108 113 118 123 127 129 129 129 133 137 138 138 139 140 139 137 136 136 137 140 145 150 154 157 161 165 167 167 167 165 164 165 170 171 170 167 161 154 147 138 130 120 103 64 15 14 40 52 42 34
345 9 24 165 172 151 121 104 71 29 31 43 57 84 108 111 98 79 72 68 61 61 70 79 82 83 84 85 84 85 89 95 98 101 104 106 108 111 116 119 122 123 123 125 126 125 125 127 129 128 127 128 129 131 133 135 138 141 146 151 156 157 156 155 153 153 158 162 165 166 164 158 152 146 138 132 119 79 60 63 66 56 40 21 23
259 53 75 102 160 139 111 95 83 61 43 46 68 103 122 124 114 101 92 84 79 77 81 86 90 90 90 90 90 93 97 100 102 104 105 106 107 109 111 113 116 118 119 120 120 120 121 123 124 124 125 126 128 129 130 130 130 132 135 140 145 146 146 146 145 146 147 148 151 156 157 154 151 148 140 131 103 68 70 82 74 46 26 12 16
207 138 101 84 103 112 101 87 84 81 68 63 86 114 130 134 126 115 108 101 97 96 97 98 99 98 96 95 95 97 101 103 105 107 108 109 110 111 111 112 115 117 118 119 121 123 125 127 127 128 129 129 128 127 127 127 126 125 127 137 143 142 142 143 141 140 143 146 150 154 155 153 153 153 144 120 86 69 76 86 68 43 42 32 18
193 169 112 88 99 109 107 98 90 84 79 85 102 116 129 134 128 121 119 116 110 109 110 109 107 105 104 102 100 99 100 103 106 109 111 113 115 115 116 116 117 117 116 119 123 128 131 131 131 130 129 127 125 123 123 125 125 122 125 135 141 142 141 140 137 137 140 143 146 149 151 150 152 151 131 102 81 71 79 93 90 63 71 44 16
186 170 126 102 104 109 110 110 102 86 85 102 113 120 127 131 129 126 127 124 120 119 118 116 113 110 108 106 104 101 101 103 105 108 110 114 117 119 119 119 119 119 121 125 129 132 132 131 130 129 128 126 125 124 124 127 129 127 126 132 139 141 140 136 133 133 135 137 140 144 144 140 139 134 117 96 79 68 68 80 123 163 78 32 11
Height
799 802 805 807 809 812 814 816 818 820 821 822 824 825 826 827 828 829 830 830 831 831 832 832 833 833 834 834 835 835 836 837 838 838 838 839 839 840 841 841 842 843 843 844 844 845 845 846 847 848 848 848 849 851 852 852 852 852 853 854 855 856 857 858 859 861 862 863 864 864 865 865 866 866 866 867 867 867 868 868 868 869 869 870 870
801 805 807 810 811 813 815 817 819 821 822 824 825 826 827 828 829 830 830 831 832 832 833 833 834 834 835 835 835 836 837 837 838 838 838 839 839 840 841 841 842 843 844 844 845 845 846 846 847 848 849 849 849 851 851 852 852 852 852 853 855 856 857 858 858 859 861 862 863 864 864 865 865 865 865 866 866 867 867 867 867 867 869 869 869
805 808 810 812 813 815 815 817 819 820 822 824 825 826 827 828 829 830 831 832 833 833 834 834 835 835 835 836 836 836 837 838 838 839 839 839 839 840 841 841 842 843 843 844 845 845 846 847 847 848 848 849 849 850 851 852 852 852 853 854 855 856 857 857 857 858 859 861 862 863 863 863 864 864 865 865 866 866 866 866 866 866 867 868 868
807 810 812 814 815 816 816 816 818 820 821 823 824 825 827 828 829 830 831 832 833 834 835 835 835 836 836 837 837 837 838 838 838 839 839 839 840 840 841 842 842 842 843 844 844 845 845 846 847 847 848 848 849 850 851 851 852 852 853 855 856 856 857 857 857 857 858 859 860 861 862 862 863 863 864 864 865 865 865 865 865 866 866 867 868
805 809 813 816 816 817 817 818 819 819 820 822 823 824 826 827 829 830 831 832 834 834 835 836 836 836 837 837 838 838 838 838 839 839 839 840 840 841 841 842 842 843 843 843 844 844 845 845 846 846 847 847 849 849 850 851 851 852 853 854 855 855 856 856 856 857 857 858 859 860 861 862 862 862 863 863 864 865 865 865 865 866 866 867 867
803 807 811 814 815 816 818 820 822 823 823 822 822 824 825 827 828 830 831 832 833 834 835 836 836 837 837 838 838 838 839 839 839 840 840 840 841 841 842 842 843 843 844 844 844 844 845 845 845 846 846 847 848 848 849 850 851 851 852 853 854 855 855 855 856 856 857 857 858 859 860 860 861 861 862 862 863 863 864 864 865 865 866 866 866
801 805 808 810 813 814 817 820 822 824 825 825 825 826 826 827 828 829 831 832 833 834 834 835 836 837 837 838 839 839 839 840 840 841 841 841 841 842 842 843 843 843 844 844 845 845 845 846 846 846 846 847 847 848 848 849 850 851 851 852 853 854 854 854 855 855 856 857 857 858 858 859 859 860 861 861 861 862 863 863 864 864 865 865 865
802 805 807 808 810 812 815 818 820 821 822 824 828 829 828 828 829 830 831 832 833 833 834 835 835 836 837 838 839 839 839 840 840 841 841 841 842 842 843 843 843 844 844 844 844 845 845 846 846 847 847 848 848 848 849 849 850 850 851 851 852 852 853 853 854 854 855 855 856 857 857 858 858 859 859 860 860 860 861 862 863 863 863 864 864
804 806 807 808 810 812 815 817 818 820 820 821 826 829 829 830 830 830 831 831 832 833 833 834 835 835 836 837 838 839 839 839 840 840 841 841 841 842 843 843 844 844 844 844 844 845 845 845 846 847 847 848 848 849 849 849 849 850 850 850 851 851 851 852 852 853 854 854 855 856 856 857 857 858 858 858 859 859 860 861 862 862 862 863 863
807 808 809 810 812 814 816 817 819 820 820 821 824 827 828 830 831 831 831 831 831 832 833 833 834 835 835 836 837 837 838 838 839 839 840 840 841 842 842 842 843 843 843 843 843 844 844 845 846 846 847 847 848 848 849 849 849 849 849 850 850 850 850 851 851 851 852 853 854 854 855 855 856 856 857 857 858 858 859 860 860 860 860 861 861
810 810 811 813 814 816 818 819 820 820 820 821 823 825 827 828 830 830 830 830 830 831 832 832 833 834 835 835 836 836 836 837 838 838 839 840 840 841 841 841 841 842 842 842 842 842 843 844 845 846 846 847 847 848 848 848 848 849 849 849 849 850 850 850 850 850 850 851 851 852 853 853 854 855 856 856 857 857 858 858 858 858 859 859 860
811 812 814 815 816 817 818 819 820 820 821 822 823 825 826 827 828 828 829 830 830 830 831 832 832 833 834 834 835 835 836 836 837 837 838 838 839 840 840 840 840 840 840 840 841 841 842 842 843 844 845 846 847 847 847 848 848 848 848 848 848 849 849 849 849 848 848 848 849 849 850 851 852 853 854 855 855 856 857 857 857 858 859 859 860
812 813 814 815 816 817 818 819 820 821 823 824 825 825 826 826 826 826 828 831 831 831 831 832 832 833 833 834 834 834 835 835 836 836 836 837 837 838 838 839 839 839 839 840 840 841 841 842 842 843 844 844 845 846 846 846 847 847 847 847 847 847 847 847 847 847 847 847 847 848 848 849 850 851 853 854 854 855 855 856 857 857 858 858 858
812 813 814 815 816 817 818 819 821 823 824 825 825 826 826 826 826 827 829 832 832 832 831 831 832 832 833 833 833 833 834 834 834 835 835 835 835 835 836 836 837 837 837 838 839 839 840 840 841 841 842 842 843 844 844 845 845 846 846 846 846 846 846 846 845 845 845 845 846 846 846 847 848 850 851 853 853 854 855 855 856 856 857 857 857
813 814 815 816 818 818 819 820 822 823 824 825 825 825 825 826 827 829 830 832 832 831 831 831 831 832 833 833 832 832 832 832 833 833 833 834 834 834 834 834 834 834 835 835 836 837 838 838 839 839 840 840 841 842 842 843 843 843 844 844 844 844 844 844 844 844 844 844 844 844 845 846 848 849 850 851 852 853 853 854 854 855 856 856 856
816 817 818 819 819 820 821 821 822 823 824 825 825 825 825 826 827 829 830 830 830 830 829 829 830 831 831 832 831 831 831 831 831 831 832 832 832 832 832 831 831 831 832 832 833 834 834 835 836 837 837 838 838 839 839 839 840 840 841 841 841 842 842 842 842 842 843 844 844 844 844 846 847 848 849 850 851 851 852 853 853 854 855 855 855
820 820 821 821 821 822 822 822 823 825 825 825 825 825 826 827 828 828 828 828 828 828 828 828 828 829 829 830 830 829 829 830 830 830 830 830 830 830 830 829 829 829 829 829 830 830 831 832 833 833 834 834 835 835 835 836 836 837 838 839 839 839 840 841 840 841 842 844 844 844 844 845 846 847 848 849 849 850 851 852 852 853 853 854 854
823 822 823 823 823 823 823 823 824 826 826 826 827 827 827 828 828 828 828 828 828 828 827 827 827 828 828 828 829 828 828 828 828 828 828 828 827 827 828 827 826 826 826 826 827 828 828 828 829 830 830 830 831 832 833 833 834 834 835 835 836 837 837 838 838 839 841 843 844 844 844 845 846 846 847 848 848 849 850 851 851 852 852 852 853
826 825 825 825 825 825 825 825 826 827 828 828 828 828 828 828 828 828 828 828 828 827 827 826 826 826 827 827 827 827 826 826 826 826 826 826 825 825 825 825 824 824 824 824 824 825 825 825 826 827 827 827 828 829 830 830 830 831 832 832 833 834 835 836 836 838 840 842 843 843 843 844 845 845 846 847 848 849 849 850 850 851 851 851 851
828 828 828 827 827 828 828 828 829 829 829 829 829 828 828 828 828 828 827 827 826 826 826 825 824 824 824 824 824 824 824 823 823 823 823 823 823 823 822 822 821 821 822 822 822 822 821 822 824 824 824 824 825 826 827 827 828 829 829 829 830 832 834 835 836 838 840 841 841 842 842 843 844 845 846 846 847 848 848 849 850 850 850 850 850
829 829 829 829 829 830 830 831 831 831 831 831 830 830 829 829 828 828 827 826 825 824 823 823 822 822 822 822 822 821 821 820 819 819 819 819 819 819 818 818 818 818 818 818 819 819 818 819 820 821 821 821 822 823 823 824 825 825 826 826 828 831 833 834 836 838 840 840 841 841 841 842 843 844 845 845 846 846 847 848 849 849 849 849 849
829 829 829 829 830 830 831 832 832 832 832 832 831 831 830 830 829 828 827 825 823 822 821 820 820 819 819 819 818 818 818 818 817 816 816 815 815 815 814 814 814 815 815 815 815 815 816 816 817 817 818 818 818 819 820 821 822 822 823 825 827 829 831 832 835 837 838 839 840 840 840 841 842 843 844 844 845 846 847 848 848 848 848 848 849
830 829 829 830 831 831 831 832 832 832 832 831 831 831 830 829 828 827 825 823 822 821 820 819 818 817 816 815 815 814 814 814 814 814 813 813 812 811 810 810 811 811 810 810 811 811 812 813 813 813 814 814 815 816 817 818 819 820 821 823 825 827 829 831 833 835 837 837 838 838 839 840 841 842 843 844 844 845 846 846 847 848 848 848 849
831 831 831 831 832 832 832 832 832 832 831 831 830 829 828 828 826 825 824 822 821 820 819 819 818 816 815 814 813 812 812 811 811 811 811 810 809 808 807 807 807 808 807 806 806 807 807 808 808 809 810 811 812 813 814 815 816 817 819 820 822 825 827 828 831 834 835 834 834 835 837 838 839 840 841 842 843 844 845 846 847 848 848 849 849
832 832 832 833 833 832 832 832 832 831 831 830 829 828 827 826 825 824 823 822 821 821 820 819 818 817 816 814 813 812 811 810 809 809 808 808 806 805 804 803 803 804 804 803 803 803 803 804 805 806 807 808 809 810 811 812 813 815 817 818 820 823 824 826 829 831 832 831 831 832 835 836 837 838 839 840 841 843 844 846 847 848 848 849 849
834 834 833 833 833 832 832 832 831 831 830 829 829 828 827 826 825 824 823 822 821 820 819 818 817 816 814 813 811 810 809 809 808 807 806 805 804 803 801 800 800 800 800 801 802 802 802 802 802 803 804 804 806 806 807 808 810 812 815 816 819 821 822 824 826 828 828 828 829 831 833 835 836 837 838 839 841 843 845 846 847 847 848 848 848
834 833 833 833 832 831 831 830 830 829 829 828 827 827 826 825 824 823 821 820 820 819 818 817 816 814 813 811 810 808 807 807 806 805 805 803 802 801 799 798 797 797 796 797 798 799 800 801 801 802 802 802 802 803 804 806 808 810 813 815 816 819 821 822 824 824 825 826 828 831 832 834 835 837 838 839 841 843 844 845 845 846 846 846 846
832 832 831 831 830 830 829 829 828 828 827 826 825 825 824 823 822 821 821 820 819 818 817 816 815 814 812 810 809 806 805 805 805 804 803 801 800 799 798 796 795 794 794 795 795 796 797 798 800 803 804 803 803 803 803 804 806 808 811 814 816 818 820 821 822 822 823 825 827 830 832 833 835 837 838 839 841 842 842 843 843 844 845 845 844
831 831 830 830 829 828 828 827 827 826 825 824 824 823 823 822 821 820 820 820 819 818 816 815 814 813 812 810 809 806 804 803 803 802 801 800 799 797 796 795 793 792 792 792 793 793 794 796 798 800 802 804 806 806 804 804 806 808 810 812 815 817 818 820 820 821 823 824 826 828 830 832 835 836 838 839 840 841 841 842 843 844 844 844 843
833 832 831 830 829 828 827 827 826 826 825 824 823 822 822 821 821 820 819 818 818 817 816 814 813 812 810 809 808 806 803 801 801 800 798 797 797 796 795 793 792 790 790 791 791 792 792 794 796 798 799 802 805 808 808 807 809 811 811 812 814 816 817 819 820 821 823 824 826 828 830 832 834 836 838 839 840 840 841 842 843 843 843 843 842
834 833 832 831 830 829 828 827 826 825 825 823 822 821 819 819 819 818 818 817 816 815 814 813 811 810 808 806 805 804 802 800 798 797 796 795 794 793 793 792 791 789 789 789 790 791 792 793 794 796 798 799 802 806 809 809 811 813 813 814 816 817 818 819 821 822 824 826 827 829 831 833 835 837 838 839 840 841 842 842 843 843 842 842 841
834 833 832 831 830 829 828 827 826 825 824 823 822 820 818 816 815 814 815 814 813 812 811 809 808 807 805 804 802 800 799 797 796 794 793 792 791 790 790 789 789 788 787 788 789 790 792 793 794 794 795 797 800 803 806 807 810 814 814 814 816 818 819 821 822 823 825 827 829 831 832 834 836 838 839 840 840 841 842 842 842 842 841 841 840
834 833 832 831 830 829 828 827 826 825 823 822 821 820 818 816 814 812 811 810 809 808 807 806 805 803 802 801 799 797 796 795 793 791 790 789 788 787 787 787 786 786 786 786 787 788 790 792 794 794 794 795 797 800 803 805 808 812 814 815 816 818 820 822 823 824 826 828 830 832 834 835 837 838 839 839 840 841 841 841 841 841 840 840 840
834 833 832 831 830 829 828 827 825 824 823 822 820 819 817 816 814 812 810 808 806 804 802 802 802 801 799 798 796 795 794 792 791 789 787 786 785 785 784 784 784 785 785 785 785 786 787 789 791 793 793 793 794 797 799 803 807 811 815 816 818 819 821 822 824 826 828 829 831 833 834 836 837 838 838 839 840 840 840 840 840 839 839 840 840
834 833 832 831 830 828 827 826 824 823 822 821 819 818 817 815 814 813 811 809 807 804 801 799 798 798 797 796 794 792 791 790 788 787 785 784 783 782 782 782 782 783 783 784 784 784 785 787 789 791 792 793 793 795 798 801 805 809 813 816 818 820 821 824 826 828 829 830 832 833 834 836 837 837 838 838 838 839 839 839 839 839 839 839 839
833 832 831 830 829 828 826 825 824 822 821 820 819 817 816 815 814 812 811 809 808 806 803 800 797 795 794 794 792 790 789 788 786 785 783 781 781 780 780 781 781 781 782 782 783 784 784 786 787 790 792 793 794 796 798 801 804 808 811 814 817 820 823 826 827 828 830 831 832 833 834 836 836 837 837 838 838 838 838 838 838 839 839 838 838
833 831 830 830 828 827 826 824 823 822 820 819 818 817 815 814 813 812 810 809 807 805 803 801 798 795 793 792 791 789 788 787 786 784 782 780 780 780 780 780 780 780 781 781 782 783 784 785 786 788 790 793 796 798 799 802 805 807 810 813 817 822 825 827 827 828 830 831 832 833 834 835 836 837 837 837 837 837 837 837 838 838 837 837 837
832 831 830 829 828 827 825 824 823 821 820 818 817 816 815 813 812 811 810 808 807 805 803 801 799 797 794 792 790 789 788 787 786 784 783 781 781 781 781 781 780 780 781 781 782 783 783 784 786 787 789 792 796 798 801 803 806 808 810 815 820 824 826 827 828 828 830 831 832 834 834 835 836 837 837 837 836 836 836 837 837 837 836 836 836
831 830 829 828 827 827 825 824 822 821 819 818 816 815 814 813 811 810 809 807 806 804 802 801 799 797 795 793 791 790 789 788 787 786 784 783 783 783 782 782 782 782 782 782 783 783 784 785 786 787 789 792 795 799 802 805 808 811 814 818 822 825 826 827 828 829 830 831 833 834 834 835 836 837 837 837 836 836 836 836 836 836 835 836 836
831 830 829 828 827 826 825 823 822 820 818 817 815 814 813 812 811 809 808 807 805 804 802 801 799 797 795 793 792 791 790 789 788 787 786 785 784 784 784 784 783 783 783 784 784 785 785 786 787 790 791 793 796 800 804 807 811 814 817 820 823 825 826 828 829 829 831 832 833 834 834 835 836 837 837 837 836 836 835 835 835 835 835 835 836
830 830 829 828 827 826 824 823 821 819 818 816 814 813 812 811 810 809 808 807 806 804 803 802 800 798 796 794 793 792 791 790 789 788 787 786 786 786 786 786 785 785 785 785 786 787 787 788 789 792 794 796 799 802 805 809 813 817 820 822 823 825 826 828 829 830 831 832 833 834 834 835 836 837 837 837 836 835 834 834 834 835 835 835 836
830 829 828 828 827 826 824 822 821 819 817 815 813 812 811 810 809 809 808 807 806 805 804 803 801 799 797 795 794 793 792 791 791 790 789 789 789 789 789 789 788 787 787 787 788 789 789 791 792 795 797 800 802 804 807 810 814 817 820 823 824 825 826 827 828 830 831 832 833 834 835 836 837 837 837 836 835 834 834 834 834 835 835 835 835
829 828 828 827 826 825 824 822 820 819 817 815 813 812 811 810 809 809 809 808 807 806 805 804 802 800 798 796 795 794 793 792 792 792 792 792 791 791 791 791 791 791 791 791 791 792 793 794 796 798 800 802 804 806 809 812 815 818 821 823 824 824 825 827 828 830 831 832 833 834 835 836 837 837 836 835 834 834 833 834 834 835 835 835 835
829 828 827 826 825 824 823 822 820 819 817 815 813 812 811 811 810 810 810 809 808 807 806 804 802 800 799 797 796 795 795 794 793 793 793 793 793 793 793 793 793 794 794 794 795 796 797 798 799 801 803 805 807 809 812 814 817 819 821 823 823 825 826 827 829 830 831 831 832 834 835 836 837 837 836 835 834 833 833 834 834 835 835 834 834
828 827 826 825 825 824 823 822 820 819 817 816 814 813 812 812 811 811 811 810 809 808 807 805 803 802 800 799 798 797 796 796 795 795 795 795 795 795 795 796 796 796 797 797 798 799 800 802 803 804 806 808 811 813 815 817 819 821 822 823 824 825 827 828 829 830 831 831 832 833 835 836 836 837 836 835 834 833 833 834 834 834 833 833 833
827 826 825 825 824 823 822 821 820 819 817 816 815 814 813 813 813 812 812 811 810 809 808 806 805 804 802 801 800 799 798 798 797 797 797 797 797 797 797 798 798 798 799 800 801 802 804 806 807 808 810 812 814 816 818 820 822 823 824 825 826 826 827 828 829 830 831 831 832 833 834 836 837 837 836 835 834 834 834 834 833 833 833 832 832
827 826 825 824 823 822 821 820 820 819 818 817 816 815 814 814 814 813 813 812 811 810 809 808 807 806 805 804 803 802 801 801 800 800 800 800 800 800 800 800 800 801 802 803 805 807 808 810 811 812 814 816 817 819 821 822 823 824 825 825 826 827 827 828 829 830 831 832 832 834 835 836 837 837 836 835 834 834 834 833 833 833 833 832 832
826 826 825 824 823 822 821 820 820 819 818 817 816 815 815 815 815 815 814 813 812 811 810 810 809 808 807 807 806 805 805 804 804 804 804 804 804 804 804 804 805 806 807 808 809 811 813 814 816 817 818 819 820 821 822 824 824 825 826 826 826 826 827 828 830 831 832 832 833 835 836 837 837 836 836 835 834 833 833 833 833 833 832 832 831
826 826 825 824 823 822 821 820 820 819 818 818 817 816 816 816 816 816 815 814 813 813 812 812 811 811 810 810 809 809 808 808 807 808 808 808 808 809 809 809 810 811 811 812 813 815 816 818 819 820 820 821 822 823 824 825 825 826 827 827 827 827 828 830 831 832 833 834 835 835 836 836 837 836 836 835 834 833 832 832 832 833 832 832 831
826 826 825 824 823 822 821 821 820 820 819 818 817 817 817 817 817 817 816 816 815 815 814 814 813 813 813 812 812 812 811 811 811 811 812 812 812 813 813 813 813 814 815 816 817 818 819 820 821 822 823 823 824 824 825 826 827 827 828 828 829 829 830 831 832 833 834 835 835 836 836 836 836 836 835 834 833 832 832 832 832 832 832 832 832
825 825 825 824 823 822 821 821 821 820 820 819 818 818 818 818 818 817 817 817 817 816 816 816 815 815 815 815 815 815 815 815 815 815 815 815 816 816 816 816 817 817 818 819 820 821 821 822 823 824 825 825 826 826 827 827 828 829 830 830 830 831 832 833 833 834 835 835 836 836 836 836 836 835 834 833 832 832 831 832 832 832 832 832 832